Regional Weather Roundup
Issued by NWS

Home | Current Version | Previous Version | Graphics & Text | Print | Product List | Glossary On
Versions: 1 2 3 4 5 6 7 8 9 10 11 12 13 14 15 16 17 18 19 20 21 22 23 24 25 26 27 28 29 30 31 32 33 34 35 36 37 38 39 40 41 42 43 44 45 46 47 48 49 50
444
ASUS44 KLIX 021005
RWRLA
LOUISIANA WEATHER ROUNDUP
NATIONAL WEATHER SERVICE NEW ORLEANS LA
500 AM CDT THU OCT 02 2014

NOTE: "FAIR" INDICATES FEW OR NO CLOUDS BELOW 12,000 FEET WITH NO
      SIGNIFICANT WEATHER AND/OR OBSTRUCTIONS TO VISIBILITY.
      SKY/WX - SKY CONDITION AND SIGNIFICANT WEATHER.
      TMP - AIR TEMPERATURE.    DP   - DEWPOINT TEMPERATURE.
      RH  - RELATIVE HUMIDITY.  PRES - PRESSURE.
      HX  - HEAT INDEX.         WCI  - WIND CHILL INDEX.

*  THESE STATIONS ARE NOT NWS OR FAA STATIONS AND ARE NOT UNDER
   NWS QUALITY CONTROL.

LAZ040-048-061>063-065-066-069-021100-
SOUTHEAST LOUISIANA

CITY           SKY/WX    TMP DP  RH WIND       PRES   REMARKS
N.O. AUDUBON     N/A     78  78  99 MISG        N/A
N.O. INTL ARPT PTCLDY    77  75  93 SE5       29.94R
N.O. LAKEFRONT CLEAR     77  76  96 SE6       29.94S
N.O. DOWNTOWN* PTSUNNY   79  73  83 CALM      29.95R
SLIDELL        MOCLDY    76  74  93 SE3       29.94S
BATON ROUGE    PTCLDY    75  73  93 SE5       29.93R
BOOTHVILLE     CLEAR     77  76  96 SE5       29.95S
BELLE CHASSE   CLEAR     78  74  87 SE5       29.94R
BOGALUSA*      CLOUDY    78  74  86 CALM      29.96S
GALLIANO*      NOT AVBL
NEW ROADS*     PTSUNNY   75  74  98 CALM      29.92S
GONZALES*      CLOUDY    75  75 100 CALM      29.93R FOG
HAMMOND*       MOCLDY    75  73  94 CALM      29.95S
HOUMA*         CLEAR    N/A N/A N/A CALM      29.93S
PORT FOURCHON* SUNNY     81  75  83 SE6       29.97R

$$

LAZ041-044-053-054-021100-
SOUTHWEST LOUISIANA

CITY           SKY/WX    TMP DP  RH WIND       PRES   REMARKS
LAKE CHARLES   PTCLDY    77  76  96 SE3       29.88R
LAFAYETTE      CLOUDY    78  77  96 S3        29.91S
PATTERSON      CLEAR     75  75 100 SE3       29.94S
SALT POINT       N/A     82  79  90 VRB3      29.91R
NEW IBERIA     CLOUDY    77  76  96 SE5       29.92R
CHENAULT AIRPK NOT AVBL

$$

LAZ027-028-021100-
CENTRAL LOUISIANA

CITY           SKY/WX    TMP DP  RH WIND       PRES   REMARKS
FORT POLK      HVY RAIN  77  77 100 S6        29.89R FOG
ALEXANDRIA INT LGT RAIN  76  75  97 SE8       29.88R
ALEXANDRIA     CLOUDY    78  75  90 S3        29.90S

$$

LAZ001-002-021100-
NORTHWEST LOUISIANA

CITY           SKY/WX    TMP DP  RH WIND       PRES   REMARKS
SHREVEPORT     MOCLDY    75  73  93 S5        29.85R
BARKSDALE AFB  MOCLDY    75  75 100 SE7       29.86R
DTN SHREVEPORT CLOUDY    75  72  90 SE5       29.85S

$$

LAZ014-016-021100-
NORTHEAST LOUISIANA

CITY           SKY/WX    TMP DP  RH WIND       PRES   REMARKS
MONROE         CLOUDY    77  73  87 S6        29.90S
TALLULAH       CLOUDY    77  73  87 S7        29.92R

$$




USA.gov is the U.S. government's official web portal to all federal, state and local government web resources and services.